Location: *
(16.3500°S, 72.2833°W)
Time: 22:32:08
(UTC+00:00)

Daily predictions for brighter satellites

Satellite Brightness Start Highest point End
(mag) Time Altitude Azimuth Time Altitude Azimuth Time Altitude Azimuth
Cosmos 2227 Rocket 2.9 22:42:23 10° NNE 22:47:21 33° ENE 22:52:21 10° SE
Meteor 2-5 Rocket 3.8 22:42:11 10° S 22:47:52 69° E 22:53:36 10° NNE
CORIOLIS 4.4 22:43:13 10° SSE 22:48:25 51° ENE 22:53:35 10° N
Cosmos 2333 Rocket 3.4 22:45:35 10° SSE 22:49:38 20° ESE 22:53:40 10° ENE
Atlas 2A Centaur Rocket 3.1 22:47:33 10° W 22:49:49 35° NNW 22:55:06 10° NE
SL-16 R/B 3.9 22:45:11 10° SW 22:50:26 39° WNW 22:55:39 10° N
Meteor 1-24 Rocket 3.9 22:46:47 10° S 22:52:13 53° E 22:57:48 10° NNE
Okean-O 4.3 22:50:53 10° ESE 22:53:25 15° E 22:55:58 10° NE
CZ-4B R/B 3.7 22:50:14 10° S 22:55:52 69° WSW 23:01:22 10° NNW
AQUARIUS 4.2 22:52:47 10° SSE 22:57:18 78° E 23:01:47 10° N
Exosat Rocket 4.4 22:53:20 10° N 22:58:22 42° E 23:04:52 10° SSE
Lacrosse 4 Rocket 2.1 22:54:28 10° NNW 22:58:22 53° WSW 23:02:22 10° S
ASTRO E2 3.5 22:55:58 10° WSW 22:59:53 54° NNW 23:03:47 10° NE
ASC 2 Rocket 4.2 22:51:41 10° WNW 23:00:24 82° NNE 23:06:00 10° ESE
NOAA 12 4.1 22:55:35 10° SSE 23:00:52 70° ENE 23:06:08 10° N
Cosmos 2098 Rocket 4.2 22:53:58 10° S 23:01:17 72° E 23:07:32 10° N
CZ-4 R/B 3.3 23:00:04 10° ESE 23:01:52 13° E 23:03:38 10° ENE
Cosmos 1340 Rocket 2.9 22:58:30 10° N 23:02:18 53° E 23:06:09 10° SSE
Cosmos 2219 3.2 22:57:15 10° N 23:02:52 78° ENE 23:08:34 10° SSE
CZ-2C R/B 4.2 23:01:34 10° E 23:03:12 11° ESE 23:04:52 10° SE
Cosmos 1939 Rocket 4.3 23:04:51 10° SE 23:07:54 20° E 23:10:55 10° NE
GPS 2-17 Rocket1 4.4 23:05:21 10° NW 23:09:11 28° NNE 23:13:06 10° E
USA 215 3.9 23:04:06 10° ENE 23:09:46 33° SE 23:15:27 10° SSW
H-2A R/B 4.0 16:06:54 10° WNW 23:09:54 79° NNW 23:14:17 10° ENE
Skynet4D Del rocket 4.1 23:06:35 10° WNW 23:12:44 79° SSW 23:18:56 14° ESE
Cosmos 1626 2.1 23:11:42 10° S 23:15:26 85° W 23:19:07 10° N
SL-4 R/B 4.3 23:11:31 10° WNW 23:15:27 25° SW 23:19:25 10° S
Centaur AC-119 3.8 22:59:37 10° WNW 23:16:03 74° SSW 23:19:28 16° ESE
Ariane H10 4.5 22:58:45 10° WNW 23:16:09 33° NNW 23:20:21 10° NE
FALCON 9 DEB 4.4 23:15:49 10° WNW 23:19:03 38° SW 23:22:20 10° SSE
Cosmos 1758 4.4 23:15:24 10° NNW 23:19:15 48° W 23:23:07 10° S
Aureole 3 Rocket 3.9 23:13:10 10° N 23:20:36 76° E 23:25:54 10° S
ARGOS Delta rocket 3.8 23:16:56 10° S 23:21:22 79° WSW 23:25:52 10° NNW
SMAP 4.3 23:17:16 10° S 23:21:42 43° WSW 23:26:06 10° NNW
GPS 2-14 Rocket1 3.2 23:19:03 10° W 23:22:45 51° NNW 23:26:22 10° ENE
Feng Yun 1-1 Rocket 4.4 23:21:47 10° SSE 23:27:43 89° E 23:33:38 10° NNW
Meteor 2-8 Rocket 4.5 23:22:51 10° N 23:28:48 58° E 23:34:46 10° SSE
Cosmos 1809 Rocket 4.4 23:24:32 10° S 23:30:47 83° E 23:36:57 10° N
Helios 1A Rocket 3.2 23:28:16 10° S 23:32:26 70° WSW 23:36:33 10° NNW
SL-24 R/B 4.1 23:38:58 10° N 23:43:07 72° W 23:46:56 10° SSW
Genesis I 3.2 23:40:37 10° SSW 23:44:28 56° ESE 23:48:18 10° NE
H-2A R/B 4.1 23:47:07 13° NE 23:47:07 13° NE 23:48:06 10° NE
Chunghua 1 4.3 23:42:25 10° SW 23:46:08 82° SSE 23:47:30 37° ENE
Centaur D AC-29 1.1 23:43:01 10° WSW 23:46:35 78° NNW 23:49:38 20° ENE
Cosmos 2297 Rocket 3.2 23:41:43 10° NW 23:47:05 45° WSW 23:52:30 10° S
YAOGAN 1 2.7 23:52:25 41° SE 23:53:29 52° E 23:57:41 10° N
Cosmos 1937 Rocket 3.7 23:49:38 10° N 23:54:38 46° E 23:55:47 39° ESE
